Showing default

DJIBOUTI-1B, 62402

Orbit data source: Space-Track

DJIBOUTI-1B, 62402 is a Djibouti payload satellite in LEO that was launched on Sat, 21 Dec 2024 UTC via an FALCON 9 launch vehicle from the Air Force Western Test Range (AFWTR). Payload-class satellites include a variety of spacecraft equipped with specific instruments for various scientific and technological missions. These include communications satellites like Starlink; space stations such as the ISS; scientific satellites like the Hubble; Earth observation satellites from companies like Planet Labs, Umbra, and HawkEye 360; GPS; miniature CubeSats for education and research; and military/defense satellites.

Loading next visibility...
Identifier
62402, 2024-247AB
Orbit
LEO
Country
Flag of DJDJ / DJI
Related business
Manufacturer
Montpellier
Mission
Operational Civil Technology
Bus & Motor
CUBESAT 1U, Unknown motor
Mass
1 kg wet, 1 kg dry
Launch date (UTC)
2024-12-21 (1 year ago)
Launch vehicle
FALCON 9
Launch site
Air Force Western Test Range (AFWTR)
Object type
Payload
Rocket body
Debris
Shape & HBR
Box, 0.1 m
Radar Cross Section
0.015 m², Medium (>0.1 m² and < 1m²)

Expand to show TLE details & history
Last TLE update: 16 hours ago

TLE from 16 hours ago
0 DJIBOUTI-1B
1 62402U 24247AB  26171.20316001  .00047025  00000-0  65461-3 0  9996
2 62402  44.9690 226.6310 0008379 348.1633  11.9063 15.56234081 84000
Epoch: 2026-06-20T04:52Z
TLE epoch observation values (Epoch: 2026-06-20T04:52:33.024Z)
Latitude
Longitude
-114.92775°
Altitude
393.008 km
Speed
7.679 km/s
True Right ascension
15h 06m 31s
True Declination
0° 00' 00"
Sunlit
Object was in full shadow at epoch
Visualization orbit readout
Latitude
Unknown
Longitude
Unknown
Altitude
Unknown
Speed
Unknown
Apparent Right ascension
Unknown
Apparent Declination
Unknown
Sunlit
N/A
Visualization observer readout
Local Sidereal Time
07:24:14
Azimuth
Unknown
Elevation
Unknown
Doppler factor
Unknown
Orbital elements
Apogee altitude
405.882 km
Perigee altitude
394.523 km
Semi-major axis
6,778.339 km
Eccentricity
0.00084
Inclination
44.969°
RAAN
226.631°
Arg. of periapsis
348.1633°
True anomaly
11.92613°
Mean anomaly
11.9063°
Eccentric anomaly
11.91621°
Mean motion
3.88918 °/min
Orbital period
92.56 mins
BSTAR
0.00065461
Loading maneuver chart data...
Computing Atmospheric mass density...
Loading historical data...
Loading historical data...
Loading historical data...
Loading historical data...
Loading historical data...
Loading historical data...
Loading historical data...

Documentation

Showing up to 5 results
|